Home   Weather   Oakhurst   Past weeks
Flag for USA

Past Weather in Oakhurst, California, USA — Yesterday and Last 2 Weeks

Now
85 °F

Clear.


Feels Like: 82 °F
Forecast: 102 / 70 °F
Wind: 8 mph from Northwest

Location: Fresno Air Terminal

Current Time: Jul 9, 2020 at 11:46:13 pm

Latest Report: Jul 9, 2020 at 10:53 pm


Visibility: 10 mi

Pressure: 29.84 "Hg

Humidity: 27%

Dew Point: 47 °F

Location of OakhurstLocation

Past Weather in Oakhurst — Graph

°F

Oakhurst Temperature Yesterday

Maximum temperature yesterday: 97 °F (at 5:53 pm)
Minimum temperature yesterday: 66 °F (at 5:53 am)
Average temperature yesterday: 83 °F

High & Low Weather Summary for the Past Weeks

 TemperatureHumidityPressure
High107 °F (Jun 27, 4:53 pm)63% (Jul 3, 5:53 am)30.01 "Hg (Jul 3, 5:53 am)
Low59 °F (Jun 29, 4:53 am)8% (Jul 8, 5:53 pm)29.60 "Hg (Jun 28, 5:53 pm)
Average83 °F32%29.81 "Hg
* Reported Jun 24 9:53 pm — Jul 9 9:53 pm, Oakhurst. Weather by CustomWeather, © 2020

Note: Actual official high and low records may vary slightly from our data, if they occured in-between our weather recording intervals... More about our weather records

Oakhurst Weather History for the Previous 24 Hours

Scroll right to see more
 ConditionsComfort  
Time TempWeatherWind HumidityBarometerVisibility
9:53 pm
Thu, Jul 9
88 °FClear.10 mph23%29.83 "Hg10 mi
8:53 pm90 °FClear.8 mph22%29.80 "Hg10 mi
7:53 pm94 °FSunny.12 mph17%29.79 "Hg10 mi
6:53 pm97 °FSunny.12 mph16%29.78 "Hg10 mi
5:53 pm99 °FSunny.9 mph9%29.78 "Hg10 mi
4:53 pm99 °FSunny.7 mph14%29.79 "Hg10 mi
3:53 pm98 °FSunny.9 mph16%29.80 "Hg10 mi
2:53 pm98 °FSunny.5 mph15%29.81 "Hg10 mi
1:53 pm97 °FSunny.5 mph17%29.81 "Hg10 mi
12:53 pm95 °FSunny.3 mph19%29.82 "Hg10 mi
11:53 am91 °FSunny.5 mph20%29.84 "Hg10 mi
10:53 am88 °FSunny.5 mph24%29.84 "Hg10 mi
9:53 am83 °FSunny.5 mph31%29.84 "Hg10 mi
8:53 am81 °FSunny.3 mph32%29.83 "Hg10 mi
7:53 am78 °FSunny.5 mph31%29.83 "Hg10 mi
6:53 am73 °FSunny.No wind38%29.82 "Hg10 mi
5:53 am71 °FSunny.No wind44%29.80 "Hg10 mi
4:53 am72 °FClear.3 mph44%29.80 "Hg10 mi
3:53 am72 °FClear.3 mph48%29.80 "Hg10 mi
2:53 am74 °FClear.7 mph48%29.80 "Hg10 mi
1:53 am75 °FClear.6 mph47%29.80 "Hg10 mi
12:53 am78 °FClear.6 mph42%29.80 "Hg10 mi
11:53 pm
Wed, Jul 8
80 °FClear.10 mph39%29.80 "Hg10 mi
Weather by CustomWeather, © 2020

See weather overview